Location: Godiavel Galaoual
(15.2485°N, 12.6604°W)
Time: 12:33:59
(UTC+00:00)

LightSail 2 - Pass Details

Date: 05 June 2020
Orbit: 692 x 720 km, 24.0° (Epoch: 14 July)

Event Time Altitude Azimuth Distance (km) Brightness Sun altitude
Rises 20:57:06 0° 230° (SW) 3,044 8.6 -21.7°
Reaches altitude 10° 20:59:40 10° 222° (SW) 2,129 7.7 -22.2°
Enters shadow 21:02:38 29° 194° (SSW) 1,255 6.2 -22.8°
